Regional Weather Roundup
Issued by NWS

Home | Current Version | Previous Version | Graphics & Text | Print | Product List | Glossary On
Versions: 1 2 3 4 5 6 7 8 9 10 11 12 13 14 15 16 17 18 19 20 21 22 23 24 25 26 27 28 29 30 31 32 33 34 35 36 37 38 39 40 41 42 43 44 45 46 47 48 49 50
000
ASUS43 KMPX 210110
RWRMN
WEATHER ROUNDUP FOR MINNESOTA
NATIONAL WEATHER SERVICE TWIN CITIES/CHANHASSEN MN
800 PM CDT THU JUL 20 2017


NOTE: "FAIR" INDICATES FEW OR NO CLOUDS BELOW 12,000 FEET WITH NO
SIGNIFICANT WEATHER AND/OR OBSTRUCTIONS TO VISIBILITY. N/A MEANS
CURRENT SKY AND/OR WEATHER CONDITIONS ARE NOT AVAILABLE.

MNZ060>063-068>070-210200-
   Twin Cities Metro

CITY           SKY/WX    TMP DP  RH WIND       PRES   REMARKS
TWIN CITIES    PTCLDY    86  63  45 CALM      29.97F
ST PAUL        CLEAR     82  69  64 S3        29.96F
CRYSTAL        CLEAR     84  63  49 CALM      29.95F
BLAINE         PTCLDY    84  63  48 CALM      29.97F
LAKEVILLE      CLEAR     77  73  88 CALM      29.98F
EDEN PRAIRIE   CLEAR     85  64  49 CALM      29.96F
SOUTH ST PAUL  CLEAR     85  62  44 CALM      29.97S
LAKE ELMO      FAIR      82  68  61 CALM      29.99S
$$
MNZ001>005-007-008-013>017-022>024-027-028-210200-
   Northwest Minnesota

CITY           SKY/WX    TMP DP  RH WIND       PRES   REMARKS
BEMIDJI        CLEAR     78  58  50 N5        29.97S
HALLOCK        CLOUDY    75  64  69 CALM      29.93F
ROSEAU         MOSUNNY   73  64  73 CALM      29.96F
WARROAD        SUNNY     73  63  68 SW3       29.97R
THIEF RVR FALL MOSUNNY   78  65  63 N3        29.97S
CROOKSTON      CLOUDY    79  64  61 CALM      29.95S
FOSSTON        MOSUNNY   75  63  64 CALM      29.97S
DETROIT LAKES  CLEAR     81  64  57 CALM      29.99R
MOORHEAD       SUNNY     82  68  61 SE3       29.93S
PARK RAPIDS    CLEAR     82  60  47 W7        29.98R
MAHNOMEN       FAIR      80  64  58 CALM      29.96S
$$
MNZ006-009>011-018-025>026-210200-
   North Central Minnesota

CITY           SKY/WX    TMP DP  RH WIND       PRES   REMARKS
BAUDETTE       PTCLDY    72  59  63 CALM      29.96S
FLAG ISLAND    MOSUNNY   70  61  73 S3        29.95S
INTL FALLS     PTCLDY    70  58  65 W5        29.96S
WASKISH        PTCLDY    75  63  64 SW5       29.96S
BIG FORK       CLEAR     75  61  60 CALM      29.97R
LONGVILLE      CLEAR     81  63  54 SW3       29.97R
GRAND RAPIDS   CLEAR     74  68  81 CALM      29.99R
CRANE LAKE     CLEAR     70  61  73 CALM      29.97S
ORR            CLEAR     70  61  73 CALM      29.94S
COOK           CLEAR     75  64  69 CALM      29.96S
WALKER         FAIR      74  64  70 CALM      29.97R
$$
MNZ012-019>021-037-210200-
   Northeast Minnesota

CITY           SKY/WX    TMP DP  RH WIND       PRES   REMARKS
DULUTH         CLEAR     79  63  57 W5        29.96S
ELY            CLEAR     73  55  53 CALM      29.96S
HIBBING        CLEAR     76  59  55 W3        29.96S
EVELETH        CLEAR     78  48  34 CALM      29.98S
DULUTH HARBOR  CLEAR     82  70  65 SW7       29.92F
TWO HARBORS    CLEAR     79  66  65 CALM      29.92F
GRAND MARAIS     N/A     72  63  73 CALM      29.90S
G MARAIS ARPRT CLEAR     68  54  60 CALM      29.98S
$$
MNZ029>031-032-039>041-046>048-054>057-064-210200-
   West Central Minnesota

CITY           SKY/WX    TMP DP  RH WIND       PRES   REMARKS
FERGUS FALLS   CLEAR     81  68  65 S3        29.93R
WHEATON        CLEAR     81  70  69 E3        29.94R
MORRIS         CLEAR     82  72  69 SE6       29.93F
ALEXANDRIA     CLEAR     80  68  66 S5        29.98S
ELBOW LAKE     FAIR      79  71  75 SE3       29.96R
WADENA         CLEAR     79  70  73 SW3       29.97R
GLENWOOD       CLEAR     79  70  73 SE3       29.97F
APPLETON       CLEAR     82  70  65 E5        29.92S
BENSON         CLEAR     81  68  65 S6        29.95F
ORTONVILLE     CLEAR     81  70  69 E6        29.91F
MADISON        CLEAR     81  70  69 SE6       29.92F
WILLMAR        FAIR      81  72  74 SE5       29.96F
$$
MNZ033>034-036-042>043-049>051-058-059-210200-
   Central Minnesota

CITY           SKY/WX    TMP DP  RH WIND       PRES   REMARKS
ST CLOUD       CLEAR     80  70  71 S3        29.96F
SAUK CENTRE    FAIR      79  70  74 CALM      29.97S
PAYNESVILLE    CLEAR     82  69  65 SE3       29.97S
AITKIN         CLEAR     79  66  65 CALM      29.96R
PINE RIVER     CLEAR     81  64  57 SW5       30.00R
BRAINERD       CLEAR     80  64  58 SW7       29.96F
STAPLES        CLEAR     81  66  61 S3        29.97S
LONG PRAIRIE   FAIR      77  70  78 CALM      29.98S
LITTLE FALLS   CLEAR     81  64  57 CALM      29.97S
LITCHFIELD     CLEAR     82  72  69 SE3       29.96F
BUFFALO        CLEAR     82  68  62 CALM      29.97F
MAPLE LAKE     CLEAR     82  72  72 CALM      29.97F
HUTCHINSON     CLOUDY    81  73  76 E3        29.97F
$$
MNZ037-044-045-052-053-210200-
   East Central Minnesota

CITY           SKY/WX    TMP DP  RH WIND       PRES   REMARKS
PRINCETON      CLEAR     82  68  61 CALM      29.97F
MORA           CLEAR     79  61  53 CALM      29.98F
CAMBRIDGE      CLEAR     82  66  57 CALM      29.95F
RUSH CITY      CLEAR     81  67  63 SW6       29.97F HAZE
MOOSE LAKE     CLEAR     75  66  73 CALM      29.95S
HINCKLEY       FAIR      79  68  69 SW3       29.96F
CLOQUET        CLEAR     79  59  50 SW5       29.97S
MCGREGOR       CLEAR     79  63  57 SW5       29.97S
$$
MNZ071>073-080-081-089-090-097-098-210200-
   Southwest Minnesota

CITY           SKY/WX    TMP DP  RH WIND       PRES   REMARKS
MONTEVIDEO     CLEAR     81  66  61 SE6       29.93F
GRANITE FALLS  CLEAR     83  70  64 E7        29.94F
CANBY          CLEAR     81  69  67 CALM      29.93F
MARSHALL       CLEAR     81  71  71 E10       29.93F
REDWOOD FALLS  CLEAR     80  69  69 E8        29.92F
OLIVIA         CLEAR     81  66  61 E7        29.94F
PIPESTONE      CLEAR     82  70  65 SE8       29.95F
WINDOM         CLEAR     79  70  73 E6        29.95F
WORTHINGTON    CLEAR     81  69  67 E10       29.96F
JACKSON        CLEAR     79  70  73 CALM      29.97F
TRACY          CLEAR     81  73  76 SE5       29.95F
SLAYTON        CLEAR     80  66  63 E6        29.98F
$$
MNZ065>067-074>077-082>085-091>093-210200-
   South Central Minnesota

CITY           SKY/WX    TMP DP  RH WIND       PRES   REMARKS
MANKATO        CLEAR     81  71  71 E7        29.95F
NEW ULM        CLEAR     81  70  69 E9        29.94F
ST JAMES       CLEAR     79  72  78 E5        29.96F
FAIRMONT       CLOUDY    79  74  84 E6        29.96F
GLENCOE        CLEAR     82  75  78 E3        29.96F
FARIBAULT      CLEAR     81  72  74 NE3       29.98F
OWATONNA       CLEAR     81  72  74 NE8       29.97F
WASECA         CLEAR     79  70  73 NE7       29.97F
ALBERT LEA     CLEAR     81  70  69 E6        29.97F
$$
MNZ078>079-086>088-094>096-210200-
   Southeast Minnesota

CITY           SKY/WX    TMP DP  RH WIND       PRES   REMARKS
ROCHESTER      CLEAR     78  72  81 NE10      29.99F
RED WING       CLEAR     79  72  78 CALM      29.96F
STANTON        CLEAR     81  71  72 CALM      29.97F
DODGE CENTER   CLEAR     79  72  78 NE7       29.99F
WINONA         PTCLDY    79  70  73 CALM      29.98S
AUSTIN         CLEAR     79  70  73 E5        29.98F
PRESTON        PTCLDY    77  71  79 NE6       30.00F
$$
ABBREVIATIONS USED IN REMARKS
   TC - TEMPERATURES IN CELSIUS
  WCI - WIND CHILL INDEX
   HX - HEAT INDEX
  VSB - VISIBILITY
$$



USA.gov is the U.S. government's official web portal to all federal, state and local government web resources and services.